Time,TemperatureF,DewpointF,PressureIn,WindDirection,WindDirectionDegrees,WindSpeedMPH,WindSpeedGustMPH,Humidity,HourlyPrecipIn,Conditions,Clouds,dailyrainin,SoftwareType,DateUTC
2013-01-31 00:02:00,25.0,24.0,29.43,WNW,298,6.0,18.0,94,0.00,,,0.63,,2013-01-31 00:02:00,
2013-01-31 00:11:00,25.0,24.0,29.43,WNW,298,6.0,18.0,94,0.00,,,0.63,,2013-01-31 00:11:00,
2013-01-31 00:22:00,24.0,23.0,29.44,WNW,298,6.0,11.0,94,0.00,,,0.59,,2013-01-31 00:22:00,
2013-01-31 00:32:00,24.0,23.0,29.44,WNW,298,8.0,13.0,94,0.00,,,0.56,,2013-01-31 00:32:00,
2013-01-31 00:42:00,24.0,23.0,29.44,WNW,298,8.0,13.0,94,0.00,,,0.56,,2013-01-31 00:42:00,
2013-01-31 00:53:00,23.0,21.0,29.46,WNW,298,6.0,16.0,93,0.00,,,0.53,,2013-01-31 00:53:00,
2013-01-31 01:02:00,23.0,21.0,29.46,WNW,298,6.0,16.0,93,0.00,,,0.51,,2013-01-31 01:02:00,
2013-01-31 01:11:00,23.0,21.0,29.46,WNW,298,6.0,16.0,93,0.00,,,0.51,,2013-01-31 01:11:00,
2013-01-31 01:21:00,23.0,21.0,29.48,WNW,298,7.0,18.0,92,0.00,,,0.50,,2013-01-31 01:21:00,
2013-01-31 01:31:00,23.0,21.0,29.49,WNW,298,6.0,13.0,92,0.00,,,0.49,,2013-01-31 01:31:00,
2013-01-31 01:42:00,23.0,21.0,29.49,WNW,298,6.0,13.0,92,0.00,,,0.49,,2013-01-31 01:42:00,
2013-01-31 01:52:00,22.0,20.0,29.49,WNW,298,7.0,13.0,90,0.00,,,0.48,,2013-01-31 01:52:00,
2013-01-31 02:01:00,22.0,19.0,29.51,WNW,298,8.0,19.0,89,0.00,,,0.47,,2013-01-31 02:01:00,
2013-01-31 02:11:00,22.0,19.0,29.51,WNW,298,8.0,19.0,89,0.00,,,0.47,,2013-01-31 02:11:00,
2013-01-31 02:21:00,22.0,19.0,29.52,WNW,298,8.0,17.0,88,0.00,,,0.47,,2013-01-31 02:21:00,
2013-01-31 02:32:00,21.0,18.0,29.52,WNW,298,6.0,14.0,88,0.00,,,0.46,,2013-01-31 02:32:00,
2013-01-31 02:41:00,21.0,18.0,29.52,WNW,298,6.0,14.0,88,0.00,,,0.46,,2013-01-31 02:41:00,
2013-01-31 02:52:00,21.0,18.0,29.52,WNW,298,6.0,14.0,88,0.00,,,0.46,,2013-01-31 02:52:00,
2013-01-31 03:03:00,20.0,17.0,29.53,WNW,298,6.0,13.0,88,0.00,,,0.43,,2013-01-31 03:03:00,
2013-01-31 03:11:00,20.0,17.0,29.53,WNW,298,6.0,13.0,88,0.00,,,0.43,,2013-01-31 03:11:00,
2013-01-31 03:21:00,20.0,17.0,29.54,WNW,298,6.0,15.0,88,0.00,,,0.42,,2013-01-31 03:21:00,
2013-01-31 03:32:00,20.0,17.0,29.54,WNW,298,4.0,15.0,87,0.00,,,0.41,,2013-01-31 03:32:00,
2013-01-31 03:41:00,20.0,17.0,29.54,WNW,298,4.0,15.0,87,0.00,,,0.41,,2013-01-31 03:41:00,
2013-01-31 03:52:00,20.0,17.0,29.55,WNW,298,19.0,19.0,87,0.00,,,0.41,,2013-01-31 03:52:00,
2013-01-31 04:02:00,20.0,16.0,29.56,WNW,298,7.0,12.0,86,0.00,,,0.39,,2013-01-31 04:02:00,
2013-01-31 04:11:00,20.0,16.0,29.56,WNW,298,7.0,12.0,86,0.00,,,0.39,,2013-01-31 04:11:00,
2013-01-31 04:22:00,20.0,16.0,29.57,WNW,298,8.0,16.0,85,0.00,,,0.37,,2013-01-31 04:22:00,
2013-01-31 04:31:00,19.0,15.0,29.57,WNW,298,9.0,16.0,83,0.00,,,0.35,,2013-01-31 04:31:00,
2013-01-31 04:41:00,19.0,15.0,29.57,WNW,298,9.0,16.0,83,0.00,,,0.35,,2013-01-31 04:41:00,
2013-01-31 04:52:00,19.0,15.0,29.57,WNW,298,9.0,17.0,83,0.00,,,0.35,,2013-01-31 04:52:00,
2013-01-31 05:03:00,18.0,14.0,29.59,WNW,298,5.0,14.0,83,0.00,,,0.35,,2013-01-31 05:03:00,
2013-01-31 05:11:00,18.0,14.0,29.59,WNW,298,5.0,14.0,83,0.00,,,0.35,,2013-01-31 05:11:00,
2013-01-31 05:22:00,17.0,12.0,29.59,WNW,298,9.0,13.0,81,0.00,,,0.35,,2013-01-31 05:22:00,
2013-01-31 05:32:00,17.0,12.0,29.59,WNW,298,9.0,13.0,81,0.00,,,0.35,,2013-01-31 05:32:00,
2013-01-31 05:41:00,17.0,12.0,29.59,WNW,298,7.0,13.0,82,0.00,,,0.34,,2013-01-31 05:41:00,
2013-01-31 05:52:00,17.0,12.0,29.59,WNW,298,7.0,13.0,82,0.00,,,0.34,,2013-01-31 05:52:00,
2013-01-31 06:01:00,17.0,12.0,29.59,WNW,298,7.0,13.0,82,0.00,,,0.34,,2013-01-31 06:01:00,
2013-01-31 06:10:00,17.0,12.0,29.59,WNW,298,7.0,13.0,82,0.00,,,0.34,,2013-01-31 06:10:00,
2013-01-31 14:02:00,10.0,6.0,29.75,WNW,298,3.0,9.0,84,0.00,,,0.16,,2013-01-31 14:02:00,
2013-01-31 14:11:00,10.0,6.0,29.75,WNW,298,3.0,9.0,84,0.00,,,0.16,,2013-01-31 14:11:00,
2013-01-31 14:22:00,10.0,6.0,29.75,WNW,298,6.0,13.0,84,0.00,,,0.14,,2013-01-31 14:22:00,
2013-01-31 14:31:00,10.0,6.0,29.77,WNW,298,10.0,16.0,83,0.00,,,0.13,,2013-01-31 14:31:00,
2013-01-31 14:42:00,10.0,6.0,29.77,WNW,298,10.0,16.0,83,0.00,,,0.13,,2013-01-31 14:42:00,
2013-01-31 14:52:00,10.0,6.0,29.77,WNW,298,7.0,18.0,82,0.00,,,0.11,,2013-01-31 14:52:00,
2013-01-31 15:03:00,11.0,7.0,29.77,WNW,298,6.0,15.0,82,0.00,,,0.08,,2013-01-31 15:03:00,
2013-01-31 15:12:00,11.0,7.0,29.77,WNW,298,6.0,15.0,82,0.00,,,0.08,,2013-01-31 15:12:00,
2013-01-31 15:22:00,11.0,6.0,29.78,WNW,298,5.0,14.0,81,0.00,,,0.06,,2013-01-31 15:22:00,
2013-01-31 15:32:00,11.0,6.0,29.78,WNW,298,3.0,12.0,80,0.00,,,0.06,,2013-01-31 15:32:00,
2013-01-31 15:42:00,11.0,6.0,29.78,WNW,298,3.0,12.0,80,0.00,,,0.06,,2013-01-31 15:42:00,
2013-01-31 15:52:00,12.0,7.0,29.79,WNW,298,9.0,12.0,80,0.00,,,0.06,,2013-01-31 15:52:00,
2013-01-31 16:03:00,12.0,7.0,29.79,WNW,298,6.0,11.0,80,0.00,,,0.06,,2013-01-31 16:03:00,
2013-01-31 16:12:00,12.0,7.0,29.79,WNW,298,6.0,11.0,80,0.00,,,0.06,,2013-01-31 16:12:00,
2013-01-31 16:22:00,12.0,7.0,29.80,WNW,298,8.0,11.0,80,0.00,,,0.06,,2013-01-31 16:22:00,
2013-01-31 16:32:00,12.0,7.0,29.81,WNW,298,9.0,11.0,79,0.00,,,0.05,,2013-01-31 16:32:00,
2013-01-31 16:42:00,12.0,7.0,29.81,WNW,298,9.0,11.0,79,0.00,,,0.05,,2013-01-31 16:42:00,
2013-01-31 16:52:00,12.0,7.0,29.81,WNW,298,4.0,17.0,79,0.00,,,0.04,,2013-01-31 16:52:00,
2013-01-31 17:02:00,12.0,7.0,29.83,WNW,298,5.0,16.0,79,0.00,,,0.03,,2013-01-31 17:02:00,
2013-01-31 17:12:00,12.0,7.0,29.83,WNW,298,5.0,16.0,79,0.00,,,0.03,,2013-01-31 17:12:00,
2013-01-31 17:23:00,12.0,7.0,29.83,WNW,298,4.0,13.0,79,0.00,,,0.01,,2013-01-31 17:23:00,
2013-01-31 17:32:00,13.0,8.0,29.84,WNW,298,10.0,11.0,79,0.00,,,0.01,,2013-01-31 17:32:00,
2013-01-31 17:43:00,13.0,8.0,29.84,WNW,298,10.0,11.0,79,0.00,,,0.01,,2013-01-31 17:43:00,
2013-01-31 17:53:00,13.0,8.0,29.84,WNW,298,9.0,13.0,80,0.00,,,0.00,,2013-01-31 17:53:00,
2013-01-31 18:02:00,13.0,7.0,29.84,WNW,298,8.0,16.0,77,0.00,,,0.00,,2013-01-31 18:02:00,
2013-01-31 18:12:00,13.0,7.0,29.85,WNW,298,5.0,18.0,76,0.00,,,0.00,,2013-01-31 18:12:00,
2013-01-31 18:22:00,13.0,7.0,29.85,WNW,298,5.0,18.0,76,0.00,,,0.00,,2013-01-31 18:22:00,
2013-01-31 18:32:00,12.0,6.0,29.85,WNW,298,6.0,12.0,78,0.00,,,0.00,,2013-01-31 18:32:00,
2013-01-31 18:43:00,12.0,6.0,29.85,WNW,298,6.0,12.0,78,0.00,,,0.00,,2013-01-31 18:43:00,
2013-01-31 18:52:00,12.0,7.0,29.85,WNW,298,4.0,15.0,79,0.00,,,0.00,,2013-01-31 18:52:00,
2013-01-31 19:02:00,13.0,8.0,29.85,WNW,298,11.0,17.0,80,0.00,,,0.00,,2013-01-31 19:02:00,
2013-01-31 19:12:00,13.0,8.0,29.85,WNW,298,11.0,17.0,80,0.00,,,0.00,,2013-01-31 19:12:00,
2013-01-31 19:22:00,13.0,8.0,29.85,WNW,298,10.0,21.0,79,0.00,,,0.00,,2013-01-31 19:22:00,
2013-01-31 19:32:00,12.0,6.0,29.85,WNW,298,10.0,18.0,77,0.00,,,0.00,,2013-01-31 19:32:00,
2013-01-31 19:42:00,12.0,6.0,29.85,WNW,298,10.0,18.0,77,0.00,,,0.00,,2013-01-31 19:42:00,
2013-01-31 19:52:00,12.0,6.0,29.86,WNW,298,10.0,17.0,78,0.00,,,0.00,,2013-01-31 19:52:00,
2013-01-31 20:02:00,12.0,6.0,29.87,WNW,298,12.0,14.0,76,0.00,,,0.00,,2013-01-31 20:02:00,
2013-01-31 20:11:00,12.0,6.0,29.87,WNW,298,12.0,14.0,76,0.00,,,0.00,,2013-01-31 20:11:00,
2013-01-31 20:22:00,12.0,6.0,29.87,WNW,298,6.0,15.0,76,0.00,,,0.00,,2013-01-31 20:22:00,
2013-01-31 20:31:00,12.0,6.0,29.87,WNW,298,8.0,17.0,76,0.00,,,0.00,,2013-01-31 20:31:00,
2013-01-31 20:42:00,12.0,6.0,29.87,WNW,298,8.0,17.0,76,0.00,,,0.00,,2013-01-31 20:42:00,
2013-01-31 20:52:00,12.0,6.0,29.88,WNW,298,6.0,17.0,76,0.00,,,0.00,,2013-01-31 20:52:00,
2013-01-31 21:02:00,11.0,5.0,29.88,WNW,298,9.0,24.0,77,0.00,,,0.00,,2013-01-31 21:02:00,
2013-01-31 21:12:00,11.0,5.0,29.88,WNW,298,9.0,24.0,77,0.00,,,0.00,,2013-01-31 21:12:00,
2013-01-31 21:22:00,11.0,5.0,29.89,WNW,298,7.0,19.0,77,0.00,,,0.00,,2013-01-31 21:22:00,
2013-01-31 21:32:00,11.0,5.0,29.89,WNW,298,11.0,17.0,77,0.00,,,0.00,,2013-01-31 21:32:00,
2013-01-31 21:42:00,11.0,5.0,29.89,WNW,298,11.0,17.0,77,0.00,,,0.00,,2013-01-31 21:42:00,
2013-01-31 21:52:00,11.0,5.0,29.90,WNW,298,13.0,17.0,75,0.00,,,0.00,,2013-01-31 21:52:00,
2013-01-31 22:02:00,10.0,4.0,29.91,WNW,298,8.0,20.0,76,0.00,,,0.00,,2013-01-31 22:02:00,
2013-01-31 22:11:00,10.0,4.0,29.91,WNW,298,8.0,20.0,76,0.00,,,0.00,,2013-01-31 22:11:00,
2013-01-31 22:22:00,10.0,5.0,29.92,WNW,298,12.0,17.0,78,0.00,,,0.00,,2013-01-31 22:22:00,
2013-01-31 22:32:00,10.0,5.0,29.93,WNW,298,6.0,15.0,79,0.00,,,0.00,,2013-01-31 22:32:00,
2013-01-31 22:42:00,10.0,5.0,29.93,WNW,298,6.0,15.0,79,0.00,,,0.00,,2013-01-31 22:42:00,
2013-01-31 22:52:00,9.0,4.0,29.93,WNW,298,6.0,17.0,79,0.00,,,0.00,,2013-01-31 22:52:00,
2013-01-31 23:02:00,9.0,4.0,29.94,WNW,298,7.0,19.0,78,0.00,,,0.00,,2013-01-31 23:02:00,
2013-01-31 23:12:00,9.0,4.0,29.94,WNW,298,7.0,19.0,78,0.00,,,0.00,,2013-01-31 23:12:00,
2013-01-31 23:22:00,8.0,3.0,29.95,WNW,298,6.0,13.0,80,0.00,,,0.00,,2013-01-31 23:22:00,
2013-01-31 23:32:00,8.0,4.0,29.95,WNW,298,10.0,15.0,82,0.00,,,0.00,,2013-01-31 23:32:00,
2013-01-31 23:42:00,8.0,4.0,29.95,WNW,298,10.0,15.0,82,0.00,,,0.00,,2013-01-31 23:42:00,
2013-01-31 23:52:00,7.0,2.0,29.96,WNW,298,8.0,13.0,79,0.00,,,0.00,,2013-01-31 23:52:00,